Regional Weather Roundup
Issued by NWS

Home | Current Version | Previous Version | Graphics & Text | Print | Product List | Glossary On
Versions: 1 2 3 4 5 6 7 8 9 10 11 12 13 14 15 16 17 18 19 20 21 22 23 24 25 26 27 28 29 30 31 32 33 34 35 36 37 38 39 40 41 42 43 44 45 46 47 48 49 50
148
ASUS44 KLIX 220405
RWRLA
LOUISIANA WEATHER ROUNDUP
NATIONAL WEATHER SERVICE NEW ORLEANS LA
1100 PM CDT MON JUL 21 2014

NOTE: "FAIR" INDICATES FEW OR NO CLOUDS BELOW 12,000 FEET WITH NO
      SIGNIFICANT WEATHER AND/OR OBSTRUCTIONS TO VISIBILITY.
      SKY/WX - SKY CONDITION AND SIGNIFICANT WEATHER.
      TMP - AIR TEMPERATURE.    DP   - DEWPOINT TEMPERATURE.
      RH  - RELATIVE HUMIDITY.  PRES - PRESSURE.
      HX  - HEAT INDEX.         WCI  - WIND CHILL INDEX.

*  THESE STATIONS ARE NOT NWS OR FAA STATIONS AND ARE NOT UNDER
   NWS QUALITY CONTROL.

LAZ040-048-061>063-065-066-069-220500-
SOUTHEAST LOUISIANA

CITY           SKY/WX    TMP DP  RH WIND       PRES   REMARKS
N.O. AUDUBON     N/A     82  75  81 MISG        N/A
N.O. INTL ARPT PTCLDY    82  73  74 CALM      30.00S
N.O. LAKEFRONT PTCLDY    86  71  60 NE5       30.01R
N.O. DOWNTOWN* CLOUDY    84  70  61 CALM      30.01S
SLIDELL        CLEAR     76  73  91 CALM      30.00R
BATON ROUGE    CLEAR     76  73  91 CALM      30.01S
BOOTHVILLE     CLEAR     80  76  87 SE3       30.01S
BELLE CHASSE   MOCLDY    78  73  84 S3        30.00S
BOGALUSA*      FAIR      76  72  87 CALM      30.02S
GALLIANO*      NOT AVBL
NEW ROADS*     FAIR      75  74  95 CALM      30.01S
GONZALES*      CLOUDY    77  77 100 CALM      30.00S
HAMMOND*       CLEAR     75  72  88 CALM      30.02S
HOUMA*         CLEAR     78  74  86 CALM      30.01R
PORT FOURCHON* CLEAR     82  75  78 CALM      30.03R

$$

LAZ041-044-053-054-220500-
SOUTHWEST LOUISIANA

CITY           SKY/WX    TMP DP  RH WIND       PRES   REMARKS
LAKE CHARLES   MOCLDY    83  79  88 N5        29.99R
LAFAYETTE      PTCLDY    80  75  84 NE5       30.01R
PATTERSON      NOT AVBL
SALT POINT       N/A     85  79  82 CALM      29.99S HX  98
NEW IBERIA     MOCLDY    82  75  79 NE6       30.01R
CHENAULT AIRPK MOCLDY    83  75  76 NE5       30.01R

$$

LAZ027-028-220500-
CENTRAL LOUISIANA

CITY           SKY/WX    TMP DP  RH WIND       PRES   REMARKS
FORT POLK      CLEAR     78  71  79 E3        30.02R
ALEXANDRIA INT CLEAR     74  71  91 CALM      30.00S
ALEXANDRIA     CLEAR     73  70  90 CALM      30.02R

$$

LAZ001-002-220500-
NORTHWEST LOUISIANA

CITY           SKY/WX    TMP DP  RH WIND       PRES   REMARKS
SHREVEPORT     CLEAR     76  70  82 CALM      30.02R
BARKSDALE AFB  CLEAR     73  72  94 NE2       30.03R
DTN SHREVEPORT CLEAR     74  70  87 CALM      30.02S

$$

LAZ014-016-220500-
NORTHEAST LOUISIANA

CITY           SKY/WX    TMP DP  RH WIND       PRES   REMARKS
MONROE         CLEAR     73  69  87 CALM      30.03S
TALLULAH       CLEAR     71  69  93 N3        30.02S

$$




USA.gov is the U.S. government's official web portal to all federal, state and local government web resources and services.